Погода в Старых Бобовичей

Россия / Брянская область     52°35′21″N   31°44′28″E
темп.,
°C
ветер,
м/с
пор.,
м/с
влажн.,
%
обл.,
%
осадки,
мм/ч
давл.,
гПа
погр.,
м
10 мая, пн
пн1000:00+4сз11675 0.0 102610
03:00+3ссз11655 0.0 102710
06:00+3св01675 0.0 102810
09:00+10св11505 0.0 1029363
12:00+14св22390 0.0 10281378
15:00+15ссв22380 0.0 10271469
18:00+15ссв34470 0.0 10261325
21:00+9св33650 0.0 102728
11 мая, вт
вт1100:00+7св33700 0.0 102638
03:00+5св34770 0.0 102757
06:00+5ссв3107742 0.0 1026202
09:00+10св5106624 0.0 1025382
12:00+17св585726 0.0 1023754
15:00+20св68565 0.0 10211091
18:00+19св610682 0.0 10211209
21:00+13в4109316 0.5 1022335
12 мая, ср
ср1200:00+9в512935 0.0 1023489
03:00+7вюв512900 0.0 1023530
06:00+6вюв512911 0.0 1024513
09:00+11вюв59681 0.0 1023877
12:00+14в5757100 0.0 10211703
15:00+14всв3460100 0.2 10181067
18:00+9в3693100 2.6 1017259
21:00+9вюв3794100 3.9 1015308
13 мая, чт
чт1300:00+8вюв3995100 0.3 1015429
03:00+8вюв3797100 0.3 1014415
06:00+8юв3797100 0.1 1013396
09:00+9ююв5789100 0.2 1014682
12:00+13ююв5766100 0.1 10151254
15:00+14юв486216 0.1 10141422
18:00+16ююв586052 0.0 10141462
21:00+11вюв3785100 0.0 1014115
14 мая, пт
пт1400:00+12в51381100 0.0 1013344
03:00+12вюв61494100 0.7 1011412
06:00+12вюв51295100 1.5 1010397
09:00+15юв588997 1.9 1009584
12:00+17ююв5780100 0.1 1009898
15:00+18ю578198 1.2 1009948
18:00+18ю477697 0.9 1009847
21:00+14ююз2290100 1.1 101133